IZ5MMH-3 Weather Reports


time (UTC)temp
F
wind
direction
speed
knots
gust
knots
rain 1hr
in
rain 24hr
in
rain mn
in
humidity
%
barometer
mb
20260507043221 55 0.0 0.0 0.00 0.00 0.00 99 1013.8
20260507042221 55 0.0 0.0 0.00 0.00 0.00 98 1013.7
20260507041221 55 0.0 0.0 0.00 0.00 0.00 98 1013.6
20260507040221 55 0.0 0.0 0.00 0.00 0.00 98 1013.6
20260507035221 55 0.0 0.0 0.00 0.00 0.00 98 1013.6
20260507034221 55 0.0 0.0 0.00 0.00 0.00 97 1013.4
20260507033221 55 0.0 0.0 0.00 0.00 0.00 97 1013.4
20260507032221 55 0.0 0.0 0.00 0.00 0.00 97 1013.5
20260507031221 55 0.0 0.0 0.00 0.00 0.00 96 1013.6
20260507030221 56 0.0 0.0 0.00 0.00 0.00 96 1013.6
20260507025221 56 0.0 0.0 0.00 0.00 0.00 96 1013.5
20260507024221 56 0.0 0.0 0.00 0.00 0.00 96 1013.6
20260507023221 56 0.0 0.0 0.00 0.00 0.00 95 1013.4
20260507022221 56 0.0 0.0 0.00 0.00 0.00 95 1013.6
20260507021221 56 0.0 0.0 0.00 0.00 0.00 94 1013.5
20260507020221 56 0.0 0.0 0.00 0.00 0.00 95 1013.4
20260507015221 56 0.0 0.0 0.00 0.00 0.00 96 1013.4
20260507014221 57 0.0 0.0 0.00 0.00 0.00 96 1013.3
20260507013221 57 0.0 0.0 0.00 0.00 0.00 96 1013.2
20260507012221 57 0.0 0.0 0.00 0.00 0.00 95 1013.3
20260507011221 57 0.0 0.0 0.00 0.00 0.00 95 1013.2
20260507010221 57 0.0 0.0 0.00 0.00 0.00 96 1013.2
20260507005221 57 0.0 0.0 0.00 0.00 0.00 95 1013.4
20260507004221 57 0.0 0.0 0.00 0.00 0.00 94 1013.4
20260507003221 57 0.0 0.0 0.00 0.00 0.00 95 1013.4
20260507002221 57 0.0 0.0 0.00 0.00 0.00 93 1013.3
20260507001221 58 0.0 0.0 0.00 0.00 0.00 93 1013.4
20260507000221 59 0.0 0.0 0.00 0.00 0.00 89 1013.3
20260506235221 59 0.0 0.0 0.00 0.00 0.00 86 1013.3
20260506234221 59 0.0 0.0 0.00 0.00 0.00 84 1013.3
20260506233220 60 0.0 0.0 0.00 0.00 0.00 80 1013.3
20260506232221 62 0.0 0.0 0.00 0.00 0.00 74 1013.3
20260506231221 63 0.0 0.0 0.00 0.00 0.00 79 1013.2
20260506230220 64 0.0 0.0 0.00 0.00 0.00 97 1013.0
20260506225221 64 0.0 0.0 0.00 0.00 0.00 97 1013.1
20260506223221 64 0.0 0.0 0.00 0.00 0.00 98 1013.3
20260506222220 64 0.0 0.0 0.00 0.00 0.00 97 1013.2
20260506221221 64 0.0 0.0 0.00 0.00 0.00 96 1013.4
20260506220220 65 0.0 0.0 0.00 0.00 0.00 96 1013.4
20260506215220 65 0.0 0.0 0.00 0.00 0.00 96 1013.4
20260506214220 64 0.0 0.0 0.00 0.00 0.00 96 1013.2
20260506213220 64 0.0 0.0 0.00 0.00 0.00 97 1013.4
20260506212221 64 0.0 0.0 0.00 0.00 0.00 97 1013.3
20260506211221 64 0.0 0.0 0.00 0.00 0.00 97 1013.2
20260506210220 64 0.0 0.0 0.00 0.00 0.00 97 1013.2
20260506205220 65 0.0 0.0 0.00 0.00 0.00 97 1013.2
20260506204220 65 0.0 0.0 0.00 0.00 0.00 96 1013.3
20260506203220 65 0.0 0.0 0.00 0.00 0.00 97 1013.2
20260506202221 65 0.0 0.0 0.00 0.00 0.00 96 1013.1
20260506201220 65 0.0 0.0 0.00 0.00 0.00 96 1012.9
20260506200220 65 0.0 0.0 0.00 0.00 0.00 97 1012.8
20260506195221 65 0.0 0.0 0.00 0.00 0.00 97 1012.7
20260506194220 65 0.0 0.0 0.00 0.00 0.00 98 1012.5
20260506193220 65 0.0 0.0 0.00 0.00 0.00 98 1012.5
20260506192221 65 0.0 0.0 0.00 0.00 0.00 98 1012.4
20260506191221 65 0.0 0.0 0.00 0.00 0.00 96 1012.2
20260506190221 65 0.0 0.0 0.00 0.00 0.00 97 1012.0
20260506185221 65 0.0 0.0 0.00 0.00 0.00 96 1011.9
20260506184221 65 0.0 0.0 0.00 0.00 0.00 96 1011.8
20260506183220 65 0.0 0.0 0.00 0.00 0.00 96 1011.8
20260506182220 65 0.0 0.0 0.00 0.00 0.00 96 1011.7
20260506181220 66 0.0 0.0 0.00 0.00 0.00 94 1011.6
20260506180221 66 0.0 0.0 0.00 0.00 0.00 93 1011.6
20260506175220 66 0.0 0.0 0.00 0.00 0.00 92 1011.5
20260506174220 67 0.0 0.0 0.00 0.00 0.00 91 1011.5
20260506173220 67 0.0 0.0 0.00 0.00 0.00 90 1011.7
20260506172220 67 0.0 0.0 0.00 0.00 0.00 89 1011.6
20260506171221 68 0.0 0.0 0.00 0.00 0.00 87 1011.5
20260506170221 68 0.0 0.0 0.00 0.00 0.00 84 1011.5
20260506165221 69 0.0 0.0 0.00 0.00 0.00 82 1011.5
20260506164220 70 0.0 0.0 0.00 0.00 0.00 80 1011.6
20260506163221 70 0.0 0.0 0.00 0.00 0.00 79 1011.5
20260506162221 70 0.0 0.0 0.00 0.00 0.00 80 1011.7
20260506161220 70 0.0 0.0 0.00 0.00 0.00 79 1011.7
20260506160221 70 0.0 0.0 0.00 0.00 0.00 79 1011.8
20260506155221 70 0.0 0.0 0.00 0.00 0.00 80 1011.8
20260506154221 70 0.0 0.0 0.00 0.00 0.00 78 1011.7
20260506153220 70 0.0 0.0 0.00 0.00 0.00 77 1011.8
20260506152220 71 0.0 0.0 0.00 0.00 0.00 76 1011.6
20260506151220 72 0.0 0.0 0.00 0.00 0.00 73 1011.6
20260506150221 73 0.0 0.0 0.00 0.00 0.00 71 1011.6
20260506145221 72 0.0 0.0 0.00 0.00 0.00 73 1011.6
20260506144220 74 0.0 0.0 0.00 0.00 0.00 69 1011.6
20260506143221 74 0.0 0.0 0.00 0.00 0.00 69 1011.6
20260506142220 75 0.0 0.0 0.00 0.00 0.00 68 1011.6
20260506141220 75 0.0 0.0 0.00 0.00 0.00 67 1011.6
20260506140220 75 0.0 0.0 0.00 0.00 0.00 67 1011.7
20260506135220 74 0.0 0.0 0.00 0.00 0.00 71 1011.6
20260506134220 73 0.0 0.0 0.00 0.00 0.00 72 1011.6
20260506133221 73 0.0 0.0 0.00 0.00 0.00 73 1011.5
20260506132220 72 0.0 0.0 0.00 0.00 0.00 74 1011.8
20260506131220 73 0.0 0.0 0.00 0.00 0.00 74 1011.6
20260506130220 74 0.0 0.0 0.00 0.00 0.00 73 1011.9
20260506125220 73 0.0 0.0 0.00 0.00 0.00 73 1011.9
20260506124220 73 0.0 0.0 0.00 0.00 0.00 76 1012.0
20260506123220 74 0.0 0.0 0.00 0.00 0.00 72 1012.1
20260506122220 73 0.0 0.0 0.00 0.00 0.00 74 1012.2
20260506121220 73 0.0 0.0 0.00 0.00 0.00 75 1012.2
20260506120220 73 0.0 0.0 0.00 0.00 0.00 75 1012.1
20260506115220 72 0.0 0.0 0.00 0.00 0.00 78 1012.1
20260506114220 73 0.0 0.0 0.00 0.00 0.00 76 1012.0
20260506113220 73 0.0 0.0 0.00 0.00 0.00 75 1011.9
20260506112220 73 0.0 0.0 0.00 0.00 0.00 78 1011.9
20260506111220 72 0.0 0.0 0.00 0.00 0.00 81 1011.8
20260506110221 71 0.0 0.0 0.00 0.00 0.00 83 1012.0
20260506105220 68 0.0 0.0 0.00 0.00 0.00 87 1012.1
20260506104220 69 0.0 0.0 0.00 0.00 0.00 85 1012.1
20260506103220 69 0.0 0.0 0.00 0.00 0.00 86 1012.1
20260506102220 68 0.0 0.0 0.00 0.00 0.00 91 1012.2
20260506101220 66 0.0 0.0 0.00 0.00 0.00 91 1012.2
20260506100220 67 0.0 0.0 0.00 0.00 0.00 87 1012.3
20260506095220 68 0.0 0.0 0.00 0.00 0.00 88 1012.3
20260506094220 67 0.0 0.0 0.00 0.00 0.00 87 1012.2
20260506093220 67 0.0 0.0 0.00 0.00 0.00 86 1012.1
20260506092220 68 0.0 0.0 0.00 0.00 0.00 85 1012.0
20260506091220 68 0.0 0.0 0.00 0.00 0.00 85 1012.0
20260506090220 66 0.0 0.0 0.00 0.00 0.00 90 1011.8
20260506085220 65 0.0 0.0 0.00 0.00 0.00 90 1011.9
20260506084220 65 0.0 0.0 0.00 0.00 0.00 91 1011.7
20260506083220 65 0.0 0.0 0.00 0.00 0.00 92 1011.6
20260506082220 65 0.0 0.0 0.00 0.00 0.00 91 1011.6
20260506081220 65 0.0 0.0 0.00 0.00 0.00 89 1011.4
20260506080220 64 0.0 0.0 0.00 0.00 0.00 88 1011.5
20260506073220 65 0.0 0.0 0.00 0.00 0.00 89 1011.5
20260506072220 65 0.0 0.0 0.00 0.00 0.00 89 1011.4
20260506071220 64 0.0 0.0 0.00 0.00 0.00 91 1011.4
20260506070220 64 0.0 0.0 0.00 0.00 0.00 95 1011.6
20260506062220 64 0.0 0.0 0.00 0.00 0.00 90 1011.5
20260506061220 64 0.0 0.0 0.00 0.00 0.00 89 1011.5
20260506060220 64 0.0 0.0 0.00 0.00 0.00 98 1011.7
20260506051220 63 0.0 0.0 0.00 0.00 0.00 10 1011.3
20260506050220 63 0.0 0.0 0.00 0.00 0.00 10 1011.2
20260506044220 63 0.0 0.0 0.00 0.00 0.00 10 1011.1